Regional Weather Roundup
Issued by NWS

Home | Current Version | Previous Version | Text Only | Print | Product List | Glossary Off
Versions: 1 2 3 4 5 6 7 8 9 10 11 12 13 14 15 16 17 18 19 20 21 22 23 24 25 26 27 28 29 30 31 32 33 34 35 36 37 38 39 40 41 42 43 44 45 46 47 48 49 50

000
ASUS43 KLOT 302006
RWRIL

ILLINOIS REGIONAL WEATHER ROUNDUP
NATIONAL WEATHER SERVICE CHICAGO/ROMEOVILLE IL
300 PM CDT TUE SEP 30 2014

NOTE: "FAIR" INDICATES FEW OR NO CLOUDS BELOW 12,000 FEET WITH NO
SIGNIFICANT WEATHER AND/OR OBSTRUCTIONS TO VISIBILITY.

* THESE STATIONS ARE NOT UNDER NWS QUALITY CONTROL. THEY ALSO MAY NOT
  REPORT WEATHER SUCH AS PRECIPITATION OR FOG.

ILZ001-002-007-009-015-016-024-302100-
NORTHWEST ILLINOIS

CITY           SKY/WX    TMP DP  RH WIND       PRES   REMARKS
MOLINE         NOT AVBL
SAVANNA*       PTSUNNY   61  45  55 NE7       30.00F
$$

ILZ003-004-008-010-011-017-018-302100-
NORTH CENTRAL ILLINOIS

CITY           SKY/WX    TMP DP  RH WIND       PRES   REMARKS
ROCKFORD       PTSUNNY   59  44  57 NE6       30.04F
FREEPORT*      PTSUNNY   52  43  71 E7        30.04F
ROCHELLE*      MOSUNNY   62  44  52 NE9       30.01F
DE KALB*       SUNNY     58  46  63 E7        30.02F
PERU*          MOSUNNY   64  47  55 NE7       29.99F
$$

ILZ005-006-012>014-019>023-302100-
NORTHEAST ILLINOIS

CITY           SKY/WX    TMP DP  RH WIND       PRES   REMARKS
CHICAGO-OHARE  PTSUNNY   55  46  71 NE13      30.03S
CHICAGO-MIDWAY CLOUDY    58  49  72 N12       30.02S
AURORA         MOSUNNY   60  46  59 NE15      30.01F
LANSING*       CLOUDY    57  49  75 NE10G16   30.02S
JOLIET*        PTSUNNY   59  47  66 E10G17    30.01F
WAUKEGAN       NOT AVBL
DUPAGE AIRPORT CLOUDY    58  46  64 NE10      30.02S
KANKAKEE*      SUNNY     63  49  61 N10       29.99S
WHEELING       CLOUDY    57  46  66 NE10      30.03F
MORRIS*        SUNNY     62  49  63 NE5       30.00S
ROMEOVILLE*    CLOUDY    58  47  64 E14       30.01F
NORTHERLY ISL    N/A     55  49  80 N13         N/A
$$

LMZ740>746-302100-
SOUTHERN LAKE MICHIGAN

STATION/POSITION SKY/WX   TEMP    WIND        PRES    VSBY  WAVE
                          AIR SEA DIR/SP/G                  HT/PER
                          (F)     (DEG/KT/KT) (MB)    (MI)  (FT/S)
SOUTHERN BUOY              54 62  360/ 16/ 19 1016.5F         4/ 7
WAUKEGAN HARBOR            52     350/ 13/ 16   N/A
HARRISON CRIB              54      10/ 16/ 20   N/A
BURNHAM HARBOR             56     340/  9/ 13   N/A
CALUMET HARBOR             56     350/ 10/ 13 1015.5R
MICHIGAN CITY              55     360/ 14/ 20   N/A
MICHIGAN CITY 6N           56 65   10/ 12/ 17   N/A           5/ 2
ST. JOSEPH                 54 62   20/ 10/ 14   N/A           5/ 2
$$

ILZ025>027-034>036-040-047-049-050-058-095>099-302100-
WEST-CENTRAL ILLINOIS

CITY           SKY/WX    TMP DP  RH WIND       PRES   REMARKS
QUINCY         SUNNY     71  59  65 E8        29.92F
GALESBURG*     PTSUNNY   67  55  66 NE8       29.96F
MACOMB*        MOSUNNY   68  56  66 E5        29.97F
JACKSONVILLE*  SUNNY     75  60  58 NE7       29.94F
PITTSFIELD*    SUNNY     73  60  64 E3        29.94F
$$

ILZ028>032-037-038-041>044-048-051>054-059>061-302100-
CENTRAL ILLINOIS

CITY           SKY/WX    TMP DP  RH WIND       PRES   REMARKS
PONTIAC        MOSUNNY   68  52  56 CALM      29.98F
BLOOMINGTON    SUNNY     70  54  56 E8          N/A
DECATUR        PTSUNNY   73  58  59 N6        29.95F
PEORIA         PTSUNNY   69  53  56 NE6       29.96F
LACON*         CLOUDY    65  50  58 NE6       29.97F
LINCOLN*       PTSUNNY   72  55  55 E5        29.92F
SPRINGFIELD    PTSUNNY   74  59  59 E6        29.94F
TAYLORVILLE    PTSUNNY   73  59  60 SE3       29.93F
$$

ILZ033-039-045-046-055>057-062-063-302100-
EAST-CENTRAL ILLINOIS

CITY           SKY/WX    TMP DP  RH WIND       PRES   REMARKS
CHAMPAIGN      MOSUNNY   71  55  56 NE6       29.95F
DANVILLE*      SUNNY     69  53  55 N7        29.93F
RANTOUL*       SUNNY     70  51  51 NE6       29.96F
MATTOON        MOSUNNY   75  56  51 N7        29.93F
PARIS*         MOSUNNY   73  57  57 N5        29.95F
$$

ILZ079-100>102-302100-
SOUTHWEST ILLINOIS

CITY           SKY/WX    TMP DP  RH WIND       PRES   REMARKS
BELLEVILLE     SUNNY     85  57  39 VRB3      29.88F HX  84
CAHOKIA*       MOSUNNY   87  54  32 VRB3      29.89F HX  85
SPARTA*        MOSUNNY   85  54  34 CALM      29.91S HX  83
$$

ILZ064>066-069>071-074>076-080>082-084>086-088>090-092>094-302100-
SOUTH-CENTRAL ILLINOIS

CITY           SKY/WX    TMP DP  RH WIND       PRES   REMARKS
CARBONDALE     SUNNY     86  52  30 VRB3      29.89F HX  84
CAIRO*         SUNNY     87  50  28 CALM      29.90F HX  84
EFFINGHAM*     PTSUNNY   76  57  51 CALM      29.93F
MARION         MOSUNNY   84  54  34 S5        29.91F HX  83
CENTRALIA*     SUNNY     83  56  39 N5        29.91F HX  82
SALEM*         SUNNY     82  63  51 N7        29.91F HX  83
METROPOLIS*    SUNNY     86  54  33 S3        29.89F HX  84
$$

ILZ067-068-072-073-078-083-087-091-302100-
SOUTHEAST ILLINOIS

CITY           SKY/WX    TMP DP  RH WIND       PRES   REMARKS
LAWRENCEVILLE  SUNNY     78  61  55 VRB7      29.92F HX  80
FLORA*         SUNNY     80  58  47 N7        29.92F HX  80
FAIRFIELD*     MOSUNNY   81  61  50 CALM      29.90F HX  81
HARRISBURG*    SUNNY     84  54  35 CALM      29.91F HX  83
ROBINSON*      SUNNY     76  63  62 N3        29.94S
CARMI*         MOSUNNY   89  57  34 NW6       29.89F HX  87
$$

ABBREVIATIONS USED IN REMARKS
   TC - TEMPERATURE IN CELSIUS
  WCI - WIND CHILL INDEX
   HX - HEAT INDEX
  VSB - VISIBILITY
$$




USA.gov is the U.S. government's official web portal to all federal, state and local government web resources and services.